Regional Weather Roundup
Issued by NWS Bismarck, ND

Home | Current Version | Previous Version | Text Only | Print | Product List | Glossary On
Versions: 1 2 3 4 5 6 7 8 9 10 11 12 13 14 15 16 17 18 19 20 21 22 23 24 25 26 27 28 29 30 31 32 33 34 35 36 37 38 39 40 41 42 43 44 45 46 47 48 49 50
000
ASUS43 KBIS 240210
RWRBIS

NWR BROADCAST TEXT
NATIONAL WEATHER SERVICE BISMARCK ND
900 PM CDT SUN APR 23 2017

NOTE: "FAIR" INDICATES FEW OR NO CLOUDS BELOW 12,000 FEET WITH NO
SIGNIFICANT WEATHER AND/OR OBSTRUCTIONS TO VISIBILITY.


CITY           SKY/WX    TMP DP  RH WIND       PRES   REMARKS
WILLISTON      CLOUDY    32  27  81 E16       29.86S
MINOT          CLOUDY    31  28  89 E15       29.92F
MINOT AFB      CLOUDY    31  27  85 E18       29.92F WCI  19
BISMARCK       CLOUDY    34  32  92 E18       29.85F
DICKINSON      CLOUDY    34  31  88 E16       29.76S
GARRISON         N/A     28  26  92 E17G26    29.87F WCI  16
HETTINGER ARPT MOCLDY    39  34  82 E22       29.74F
JAMESTOWN      CLOUDY    32  29  88 NE22G29   29.87F WCI  19
HAZEN          CLOUDY    30  28  93 E18       29.87F WCI  18
LINTON           N/A     34  34 100 NE16G25   29.82F
MANDAN         CLOUDY    32  32 100 E17G26    29.84F FOG
STANLEY        CLOUDY    28  28 100 E21G32    29.88F WCI  15
TIOGA          CLOUDY    27  27 100 E24G32    29.86F WCI  12
WATFORD CITY   CLOUDY    30  30 100 E18       29.85R WCI  18
$$

CITY           SKY/WX    TMP DP  RH WIND       PRES   REMARKS
GRAND FORKS    CLOUDY    33  30  88 E17       30.01F
GRAND FORKS AF MIX PCPN  32  28  86 E14       30.01F
DEVILS LAKE    CLOUDY    29  26  89 E14G24    29.97S WCI  18
FARGO          FAIR      37  32  82 NE17      29.91F
CAVALIER       FAIR      36  18  48 E9        30.04F
GRAFTON        MIX PCPN  32  32 100 E9        30.06F
GWINNER        CLEAR     41  36  81 MISG      29.83S
LANGDON        FAIR      34  18  51 E17       29.99F
ROLLA          CLOUDY    32  19  59 E13       29.98S
$$

CITY           SKY/WX    TMP DP  RH WIND       PRES   REMARKS
ABERDEEN       FAIR      52  40  63 NE23G30   29.71F
MOBRIDGE       FAIR      41  32  70 N14G24    29.73R
BUFFALO          N/A     46  39  76 E16       29.62F
RAPID CITY     FAIR      57  40  52 NE10      29.63F
GLASGOW        CLOUDY    36  29  75 E24G30    29.73F
SIDNEY         CLOUDY    33  31  92 E13       29.80F
WOLF POINT     CLOUDY    36  31  82 E17       29.81R
GLENDIVE       CLOUDY    40  33  76 E16       29.73F
MILES CITY     FAIR      48  37  65 NE16      29.62F
BAKER          CLOUDY    40  33  76 E20       29.69F
$$

CITY           SKY/WX    TMP DP  RH WIND       PRES   REMARKS
BILLINGS       MOCLDY    50  43  77 NW24G31   29.66R
GREAT FALLS    CLOUDY    49  39  68 S5        29.68F
REGINA         CLOUDY    36  18  48 E22G30    29.88S
ESTEVAN        CLOUDY    30  25  80 E17G26    29.90F WCI  18
$$





USA.gov is the U.S. government's official web portal to all federal, state and local government web resources and services.